AirNav   Get $300 off a Bose A20
 
 1073 users online  

KCYW Clay Center Municipal Airport
Clay Center, Kansas, USA

GOING TO CLAY CENTER?


FAA INFORMATION EFFECTIVE 28 MARCH 2019

Location

FAA Identifier: CYW
Lat/Long: 39-23-13.7000N / 097-09-26.0000W
39-23.228333N / 097-09.433333W
39.3871389 / -97.1572222
(estimated)
Elevation: 1208.9 ft. / 368.5 m (surveyed)
Variation: 04E (2010)
From city: 2 miles W of CLAY CENTER, KS
Time zone: UTC -5 (UTC -6 during Standard Time)
Zip code: 67432

Airport Operations

Airport use: Open to the public
Activation date: 04/1942
Control tower: no
ARTCC: KANSAS CITY CENTER
FSS: WICHITA FLIGHT SERVICE STATION
NOTAMs facility: ICT (NOTAM-D service available)
Attendance: 0800-1700
FOR SVC AFT DUSK CALL CELL 785-757-4551.
Wind indicator: lighted
Segmented circle: yes
Lights: RY 17/35 MIRL PRESET LOW INTST DUSK-2200; TO INCR INTST ACTVT - CTAF. AFT 2200 ACTVT - CTAF. ACTIVE REILS AND PAPIS - CTAF. RWY 17/35 ACTVT REILS AND PAPIS -CTAF.
Beacon: white-green (lighted land airport)
Operates sunset to sunrise.

Airport Communications

CTAF/UNICOM: 122.8
WX AWOS-3: 119.95 (785-777-2509)
MARSHALL AAF GCA APPROACH: 121.25
MARSHALL AAF GCA DEPARTURE: 121.25
  • APCH/DEP SVC PRVDD BY KANSAS CITY ARTCC ON FREQS 127.35/257.975 (MANHATTAN RCAG) WHEN MARSHALL APCH CTL CLSD.

Nearby radio navigation aids

VOR radial/distance  VOR name  Freq  Var
MHKr299/26.9MANHATTAN VOR/DME110.2004E
FRIr325/(28.6)FORT RILEY VOR109.4006E
SLNr031/35.1SALINA VORTAC117.1007E

 
NDB name  Hdg/Dist  Freq  Var  ID
CLAY CENTERat field36204ECYW -.-. -.-- .--
CAVALRY316/27.531406ECVY -.-. ...- -.--

Airport Services

Fuel available: 100LL MOGAS
Parking: hangars and tiedowns
Airframe service: MAJOR
Powerplant service: MAJOR
Bottled oxygen: NONE
Bulk oxygen: NONE

Runway Information

Runway 17/35

Dimensions: 4197 x 75 ft. / 1279 x 23 m
Surface: asphalt, in good condition
Weight bearing capacity: 
Single wheel: 12.0
Double wheel: 15.0
Runway edge lights: medium intensity
RUNWAY 17  RUNWAY 35
Latitude: 39-23.573603N39-22.882590N
Longitude: 097-09.422507W097-09.443152W
Elevation: 1208.7 ft.1206.7 ft.
Traffic pattern: leftleft
Runway heading: 177 magnetic, 181 true357 magnetic, 001 true
Displaced threshold: 202 ft.227 ft.
Markings: numbers only, in good conditionnumbers only, in good condition
Visual slope indicator: 2-light PAPI on left (2.75 degrees glide path)2-light PAPI on left (2.75 degrees glide path)
Runway end identifier lights: yesyes
Touchdown point: yes, no lightsyes, no lights
Obstructions: 7 ft. other, 335 ft. from runway, 19:1 slope to clear
RWY 17 22:1 TO DSPLCD THR.
15 ft. road, 465 ft. from runway, 17:1 slope to clear

Airport Ownership and Management from official FAA records

Ownership: Publicly-owned
Owner: CITY OF CLAY CENTER
427 COURT ST.
CLAY CENTER, KS 67432
Phone 785-632-5454
Manager: SCOTT HEINEN
1226 104TH ROAD
SENECA, KS 66538
Phone (800) 760-4964

Airport Operational Statistics

Aircraft based on the field: 15
Single engine airplanes: 15
    
Aircraft operations: avg 85/day *
39% local general aviation
32% transient general aviation
29% military
* for 12-month period ending 28 September 2016

Instrument Procedures

NOTE: All procedures below are presented as PDF files. If you need a reader for these files, you should download the free Adobe Reader.

NOT FOR NAVIGATION. Please procure official charts for flight.
FAA instrument procedures published for use from 28 March 2019 at 0901Z to 25 April 2019 at 0900Z.

 
IAPs - Instrument Approach Procedures
RNAV (GPS) RWY 17   download (167KB)
RNAV (GPS) RWY 35   download (187KB)
NDB RWY 35   download (161KB)
NOTE: Special Take-Off Minimums/Departure Procedures apply   download (147KB)

Other nearby airports with instrument procedures:

K38 - Washington County Veteran's Memorial Airport (21 nm N)
KCNK - Blosser Municipal Airport (25 nm NW)
3JC - Freeman Field Airport (25 nm SE)
KMHK - Manhattan Regional Airport (27 nm SE)
KFRI - Marshall Army Airfield (27 nm SE)
 
Loc | Ops | Rwys | IFR | FBO | Links
Com | Nav | Svcs | Stats | Notes

Kansas City Aviation Department
 
Area around KCYW (Clay Center Municipal Airport)
 
Road maps at: MapQuest Bing Google
 
Aerial photo
WARNING: Photo may not be current or correct
Aerial photo of KCYW (Clay Center Municipal Airport)
Do you have a better or more recent aerial photo of Clay Center Municipal Airport that you would like to share? If so, please send us your photo.

 
Sectional chart

 
Airport distance calculator
Flying to Clay Center Municipal Airport? Find the distance to fly.

From to KCYW

Sunrise and sunset
Times for 22-Apr-2019
 Local
(UTC-5)
 Zulu
(UTC)
Morning civil twilight06:1411:14
Sunrise06:4311:43
Sunset20:1201:12
Evening civil twilight20:4001:40

Current date and time
Zulu (UTC)  23-Apr-2019 00:37:46
Local (UTC-5)  22-Apr-2019 19:37:46
 
METAR
KCNK 
25nm NW 
222355Z AUTO 36014G22KT 10SM OVC027 15/08 A3009 RMK AO2 SLP184 T01500083 10183 20150 53012
KMHK 
27nm SE 
222352Z 35007KT 330V030 10SM OVC040 19/10 A3005 RMK AO2 SLP171 T01890100 10217 20189 51015
KFRI 
28nm SE 
222356Z 34009KT 10SM OVC041 19/10 A3005 RMK AO2A SLP170 T01860099 10209 20179 52014
KMYZ 
37nm NE 
230015Z AUTO 35011G15KT 10SM OVC027 14/08 A3007 RMK AO2
KSLN 
43nm SW 
222353Z 36011KT 10SM OVC036 17/09 A3008 RMK AO2 SLP183 T01670094 10194 20156 53015
TAF
KMHK 
27nm SE 
221731Z 2218/2318 30011KT P6SM BKN027 FM221900 32010KT P6SM SCT025 BKN050 FM230200 35008KT P6SM BKN150
KFRI 
28nm SE 
230000Z 2300/2406 35009KT 9999 BKN045 QNH3000INS BECMG 2308/2309 01006KT 9999 BKN030 OVC150 QNH3012INS BECMG 2312/2313 02012KT 9999 OVC030 QNH3014INS BECMG 2318/2319 03009KT 9999 BKN035 OVC150 621505 QNH3004INS BECMG 2402/2403 VRB06KT 9999 BKN040 BKN150 621505 QNH3005INS TX19/2321Z TN08/2312Z
NOTAMs
Click for the latest NOTAMs
NOTAMs are issued by the DoD/FAA and will open in a separate window not controlled by AirNav.

 

 
 

Would you like to see your business listed on this page?

 If your business provides an interesting product or service to pilots, flight crews, aircraft, or users of the Clay Center Municipal Airport, you should consider listing it here.  To start the listing process, click on the button below
 
Add a business
 

Other Pages about Clay Center Municipal Airport

Update a link
 
Copyright © AirNav, LLC. All rights reserved. Privacy Policy  Contact